Preview of NWS' New Version of Forecast
This preview is not operational and should not be used for support decisions.

Regional Weather Roundup (RWR)

Issued by National Weather Service (NWS)

                            
000
ASUS43 KTOP 210808
RWRKS 

WEATHER ROUNDUP FOR KANSAS
NATIONAL WEATHER SERVICE GOODLAND KS
300 AM CDT WED AUG 21 2019

NOTE:  "FAIR" INDICATES FEW OR NO CLOUDS BELOW 12,000 FEET WITH NO
SIGNIFICANT WEATHER AND/OR OBSTRUCTIONS TO VISIBILITY.

KSZ001>006-013>018-027>032-041>047-210900-
NORTHWEST KANSAS
  
CITY           SKY/WX    TMP DP  RH WIND       PRES   REMARKS
GOODLAND       CLEAR     72  57  59 S20       30.03F                  
HAYS           LGT RAIN  83  58  42 W23       29.80F                  
HILL CITY      CLEAR     83  57  41 SW17G33   29.91F                  
RUSSELL        CLEAR     76  60  57 S12       29.89F                  
$$

KSZ061>065-074>080-084>089-210900-
SOUTHWEST KANSAS
  
CITY           SKY/WX    TMP DP  RH WIND       PRES   REMARKS
DODGE CITY     PTCLDY    78  63  59 S14       30.02F                  
ELKHART        CLEAR     73  55  53 SW7       30.05S                  
GARDEN CITY    PTCLDY    74  58  57 NE14G24   30.04F                  
GREAT BEND     LGT RAIN  81  58  45 S26G41    29.93F                  
LIBERAL        CLEAR     81  60  48 S20       30.01F                  
PRATT          CLEAR     78  63  59 W10       29.97S THUNDER          
$$

KSZ066>073-081>083-090>101-210900-
SOUTHEAST KANSAS
  
CITY           SKY/WX    TMP DP  RH WIND       PRES   REMARKS
CHANUTE        CLEAR     82  75  79 S9        29.95F                  
COFFEYVILLE    CLEAR     79  75  87 S8        29.95F                  
HUTCHINSON     CLEAR     81  68  64 S9        29.91F                  
MEDICINE LODGE   N/A     80  63  55 W9        29.94F                  
NEWTON           N/A     78  72  81 S9        29.94F                  
PARSONS        CLEAR     81  76  84 S6        29.97F                  
WICHITA INTL   MOCLDY    79  71  76 S8        29.93F                  
WICHITA JABRA  CLEAR     81  71  71 S9        29.93F                  
WICHITA MCCONL CLEAR     80  69  70 SE10      29.94F                  
WINFIELD       CLEAR     79  71  76 S9        29.95F                  
$$

KSZ007>012-019>026-033>040-048>060-102>105-210900-
NORTHEAST KANSAS
  
CITY           SKY/WX    TMP DP  RH WIND       PRES   REMARKS
CONCORDIA      CLEAR     77  72  84 CALM      29.88F                  
EMPORIA        CLOUDY    79  72  79 NW9G22    29.97S THUNDER          
LAWRENCE       CLOUDY    80  76  87 SE5       29.90F                  
MANHATTAN      PTCLDY    83  72  69 S10G21    29.88F                  
MARYSVILLE     CLOUDY    73  64  73 NE26G38   29.97R                  
OLATHE IND     PTCLDY    79  74  84 SE8       29.92F                  
OLATHE EXE     PTCLDY    77  76  96 SE8       29.92F                  
SALINA         CLEAR     79  74  84 S7        29.86F                  
TOPEKA BILLARD PTCLDY    82  73  74 S7        29.90F                  
TOPEKA FORBES  MOCLDY    81  72  74 SW13      29.89F                  
$$